Bluewater, NM

5:53 AM MST on February 12, 2016 (GMT -0700)
Grants-Milan Municipal

Weather History for KGNT - February, 2014

Change the Weather History Date:

Tuesday, February 11, 2014

  Actual Average Record
Temperature  
Mean Temperature 34 °F -  
Max Temperature 52 °F 52 °F 70 °F (1962)
Min Temperature 16 °F 17 °F -6 °F (1972)
Degree Days  
Heating Degree Days 31    
Moisture  
Dew Point 15 °F    
Average Humidity 56    
Maximum Humidity 94    
Minimum Humidity 12    
Precipitation  
Precipitation 0.00 in - - ()
Sea Level Pressure  
Sea Level Pressure 30.12 in    
Wind  
Wind Speed 6 mph (NNW)    
Max Wind Speed 18 mph    
Max Gust Speed 22 mph    
Visibility 10 miles    
Events      
Averages and records for this station are not official NWS values.
T = Trace of Precipitation, MM = Missing Value Source: NWS Daily Summary

Daily Weather History Graph

Daily Weather History Graph

Search for Another Location

Airport or City:

Trip Planner

Search our weather history database for the weather conditions in past years. The results will help you decide how hot, cold, wet, or windy it might be!

Date:

Astronomy

Feb. 11, 2014 Rise Set
Actual Time 7:01 AM MST 5:50 PM MST
Civil Twilight 6:35 AM MST 6:16 PM MST
Nautical Twilight 6:05 AM MST 6:46 PM MST
Astronomical Twilight 5:36 AM MST 7:15 PM MST
Moon 3:16 PM MST (2/11) 4:37 AM MST (2/11)
Length of Visible Light 11h 40m
Length of Day
10h 48m
Waxing Gibbous, 91% of the Moon is Illuminated
Feb 11
Waxing Gibbous
Feb 14
Full
Feb 22
Last Quarter
Mar 1
New
Mar 8
First Quarter

Hourly Weather History & Observations

Time (MST) Temp. Windchill Dew Point Humidity Pressure Visibility Wind Dir Wind Speed Gust Speed Precip Events Conditions
12:15 AM 27.7 °F - 23.2 °F 83% 30.08 in 10.0 mi Calm Calm - N/A   Clear
12:35 AM 28.2 °F 22.0 °F 22.6 °F 80% 30.08 in 10.0 mi North 5.8 mph - N/A   Clear
12:55 AM 26.4 °F 18.9 °F 21.9 °F 83% 30.07 in 10.0 mi NNW 6.9 mph - N/A   Clear
1:15 AM 25.5 °F 19.9 °F 21.6 °F 85% 30.08 in 10.0 mi North 4.6 mph - N/A   Clear
1:35 AM 25.9 °F 21.7 °F 21.6 °F 84% 30.08 in 10.0 mi North 3.5 mph - N/A   Clear
1:55 AM 24.6 °F 18.8 °F 21.6 °F 88% 30.08 in 10.0 mi North 4.6 mph - N/A   Clear
2:15 AM 24.1 °F 17.0 °F 21.9 °F 91% 30.08 in 10.0 mi NW 5.8 mph - N/A   Clear
2:35 AM 23.0 °F 15.8 °F 20.5 °F 90% 30.09 in 10.0 mi North 5.8 mph - N/A   Clear
2:55 AM 23.7 °F 14.7 °F 21.9 °F 93% 30.09 in 10.0 mi NNW 8.1 mph - N/A   Clear
3:15 AM 25.2 °F 13.3 °F 22.5 °F 89% 30.09 in 10.0 mi NW 13.8 mph - N/A   Clear
3:35 AM 24.4 °F 14.2 °F 21.9 °F 90% 30.10 in 10.0 mi NW 10.4 mph - N/A   Clear
3:55 AM 25.2 °F 15.1 °F 22.5 °F 89% 30.10 in 10.0 mi NW 10.4 mph - N/A   Clear
4:15 AM 22.3 °F 13.9 °F 20.1 °F 91% 30.10 in 10.0 mi NW 6.9 mph - N/A   Clear
4:35 AM 25.2 °F 15.1 °F 22.1 °F 88% 30.10 in 10.0 mi NW 10.4 mph - N/A   Clear
4:55 AM 20.3 °F 12.5 °F 18.0 °F 91% 30.10 in 10.0 mi NNW 5.8 mph - N/A   Clear
5:15 AM 19.2 °F 11.3 °F 17.4 °F 93% 30.10 in 10.0 mi NW 5.8 mph - N/A   Clear
5:35 AM 16.9 °F 6.4 °F 15.3 °F 93% 30.10 in 10.0 mi NNW 8.1 mph - N/A   Clear
5:55 AM 19.8 °F 10.8 °F 18.3 °F 94% 30.12 in 10.0 mi NW 6.9 mph - N/A   Clear
6:15 AM 21.0 °F 12.4 °F 19.4 °F 93% 30.12 in 10.0 mi NW 6.9 mph - N/A   Clear
6:35 AM 21.6 °F 12.1 °F 19.4 °F 91% 30.13 in 10.0 mi NW 8.1 mph - N/A   Clear
6:55 AM 21.0 °F - 18.5 °F 90% 30.13 in 10.0 mi Calm Calm - N/A   Clear
7:15 AM 20.3 °F 13.8 °F 18.0 °F 91% 30.14 in 10.0 mi NW 4.6 mph - N/A   Clear
7:35 AM 20.7 °F 14.2 °F 18.1 °F 90% 30.15 in 10.0 mi NNW 4.6 mph - N/A   Clear
7:55 AM 22.6 °F 13.4 °F 20.8 °F 93% 30.15 in 10.0 mi WNW 8.1 mph - N/A   Clear
8:15 AM 29.1 °F 25.4 °F 23.5 °F 80% 30.16 in 10.0 mi NE 3.5 mph - N/A   Clear
8:35 AM 27.9 °F 22.6 °F 23.4 °F 83% 30.16 in 10.0 mi NW 4.6 mph - N/A   Clear
8:55 AM 30.9 °F 25.2 °F 24.4 °F 77% 30.16 in 10.0 mi NW 5.8 mph - N/A   Clear
9:15 AM 33.6 °F 28.4 °F 24.3 °F 69% 30.17 in 10.0 mi NW 5.8 mph - N/A   Clear
9:35 AM 35.4 °F 32.6 °F 22.1 °F 58% 30.17 in 10.0 mi NNW 3.5 mph - N/A   Clear
9:55 AM 37.0 °F 33.3 °F 19.9 °F 50% 30.17 in 10.0 mi NNW 4.6 mph - N/A   Clear
10:15 AM 38.8 °F 34.6 °F 19.4 °F 46% 30.17 in 10.0 mi North 5.8 mph - N/A   Clear
10:35 AM 40.6 °F 36.0 °F 18.3 °F 41% 30.18 in 10.0 mi NNW 6.9 mph - N/A   Clear
10:55 AM 41.0 °F 38.0 °F 19.2 °F 42% 30.16 in 10.0 mi North 4.6 mph - N/A   Clear
11:15 AM 42.4 °F 38.8 °F 19.0 °F 39% 30.16 in 10.0 mi North 5.8 mph - N/A   Clear
11:35 AM 43.7 °F - 17.6 °F 35% 30.15 in 10.0 mi Calm Calm - N/A   Clear
11:55 AM 44.6 °F 41.4 °F 17.2 °F 33% 30.15 in 10.0 mi NW 5.8 mph - N/A   Clear
12:15 PM 45.5 °F 43.2 °F 15.8 °F 30% 30.13 in 10.0 mi West 4.6 mph - N/A   Clear
12:35 PM 45.7 °F 42.7 °F 14.5 °F 29% 30.14 in 10.0 mi NNE 5.8 mph - N/A   Clear
12:55 PM 46.0 °F - 14.2 °F 28% 30.12 in 10.0 mi Calm Calm - N/A   Clear
1:15 PM 48.6 °F - 13.8 °F 25% 30.10 in 10.0 mi Calm Calm - N/A   Clear
1:35 PM 49.1 °F - 11.8 °F 22% 30.09 in 10.0 mi NNE 4.6 mph - N/A   Clear
1:55 PM 49.1 °F - 10.2 °F 21% 30.07 in 10.0 mi East 3.5 mph - N/A   Clear
2:15 PM 50.0 °F - 9.0 °F 19% 30.06 in 10.0 mi Calm Calm - N/A   Clear
2:35 PM 50.7 °F - 7.9 °F 18% 30.06 in 10.0 mi Calm Calm - N/A   Clear
2:55 PM 50.9 °F - 5.9 °F 16% 30.05 in 10.0 mi Calm Calm - N/A   Clear
3:15 PM 52.3 °F - 2.3 °F 13% 30.04 in 10.0 mi NNW 12.7 mph 18.4 mph N/A   Clear
3:35 PM 52.5 °F - 0.3 °F 12% 30.04 in 10.0 mi NNW 18.4 mph 21.9 mph N/A   Clear
3:55 PM 52.0 °F - 0.7 °F 12% 30.04 in 10.0 mi NW 16.1 mph 19.6 mph N/A   Clear
4:15 PM 51.1 °F - 1.9 °F 13% 30.04 in 10.0 mi NNW 13.8 mph - N/A   Clear
4:35 PM 49.6 °F - 1.8 °F 14% 30.04 in 10.0 mi NNW 11.5 mph - N/A   Clear
4:55 PM 49.1 °F - 2.8 °F 15% 30.06 in 10.0 mi NNW 10.4 mph - N/A   Clear
5:15 PM 47.1 °F - 5.9 °F 19% 30.06 in 10.0 mi NW 5.8 mph - N/A   Clear
5:35 PM 43.7 °F 39.7 °F 10.9 °F 26% 30.08 in 10.0 mi West 6.9 mph - N/A   Clear
5:55 PM 43.0 °F 37.7 °F 13.1 °F 30% 30.10 in 10.0 mi West 9.2 mph - N/A   Clear
6:15 PM 40.6 °F 35.4 °F 11.8 °F 31% 30.12 in 10.0 mi West 8.1 mph - N/A   Clear
6:35 PM 39.7 °F 33.7 °F 11.3 °F 31% 30.12 in 10.0 mi West 9.2 mph - N/A   Clear
6:55 PM 39.9 °F 35.1 °F 11.8 °F 32% 30.13 in 10.0 mi North 6.9 mph - N/A   Clear
7:15 PM 38.3 °F 31.9 °F 10.2 °F 31% 30.14 in 10.0 mi NNW 9.2 mph - N/A   Clear
7:35 PM 34.0 °F 27.2 °F 10.0 °F 37% 30.14 in 10.0 mi NNW 8.1 mph - N/A   Clear
7:55 PM 34.2 °F 27.5 °F 9.3 °F 36% 30.15 in 10.0 mi NNW 8.1 mph - N/A   Clear
8:15 PM 31.6 °F 26.0 °F 9.7 °F 40% 30.16 in 10.0 mi North 5.8 mph - N/A   Clear
8:35 PM 29.8 °F 24.9 °F 9.1 °F 42% 30.16 in 10.0 mi North 4.6 mph - N/A   Clear
8:55 PM 27.1 °F 20.7 °F 10.0 °F 49% 30.16 in 10.0 mi NNW 5.8 mph - N/A   Clear
9:15 PM 31.1 °F 26.4 °F 11.5 °F 44% 30.16 in 10.0 mi North 4.6 mph - N/A   Clear
9:35 PM 26.6 °F 18.2 °F 11.1 °F 52% 30.18 in 10.0 mi NNW 8.1 mph - N/A   Clear
9:55 PM 25.2 °F 18.3 °F 11.5 °F 56% 30.17 in 10.0 mi North 5.8 mph - N/A   Clear
10:15 PM 24.1 °F 17.0 °F 12.0 °F 60% 30.18 in 10.0 mi NNW 5.8 mph - N/A   Clear
10:35 PM 28.4 °F 20.4 °F 13.6 °F 54% 30.18 in 10.0 mi NNW 8.1 mph - N/A   Clear
10:55 PM 26.2 °F 15.8 °F 13.5 °F 59% 30.19 in 10.0 mi NW 11.5 mph - N/A   Clear
11:15 PM 24.8 °F 16.9 °F 12.9 °F 61% 30.20 in 10.0 mi NW 6.9 mph - N/A   Clear
11:35 PM 21.2 °F 14.9 °F 11.7 °F 67% 30.20 in 10.0 mi NNW 4.6 mph - N/A   Clear
11:55 PM 22.8 °F 14.5 °F 12.6 °F 65% 30.20 in 10.0 mi NW 6.9 mph - N/A   Clear